Location: Il Ritiro
(43.4167°N, 13.1333°E)
Time: 08:13:46
(UTC+00:00)

ATLAS CENTAUR R/B - Pass Details

Date: 05 July 2020
Orbit: 475 x 672 km, 64.7° (Epoch: 13 July)

Event Time Altitude Azimuth Distance (km) Brightness Sun altitude
Rises 21:53:15 0° 316° (NW) 2,550 5.9 -21.5°
Reaches altitude 10° 21:55:34 10° 305° (NW) 1,654 4.5 -21.6°
Enters shadow 21:58:26 29° 255° (WSW) 902 2.4 -21.8°
